Regional Weather Roundup
Issued by NWS Wakefield, VA

Home | Current Version | Previous Version | Text Only | Print | Product List | Glossary Off
Versions: 1 2 3 4 5 6 7 8 9 10 11 12 13 14 15 16 17 18 19 20 21 22 23 24 25 26 27 28 29 30 31 32 33 34 35 36 37 38 39 40 41 42 43 44 45 46 47 48

000
ASUS41 KAKQ 030710
RWRAKQ

REGIONAL WEATHER ROUNDUP
NATIONAL WEATHER SERVICE WAKEFIELD VA
200 AM EST TUE MAR 03 2015

Note: "fair" indicates few or no clouds below 12,000 feet with no
significant weather and/or obstructions to visibility. * = Denotes
station may not report precipitation (e.g., rain,snow,etc.),
thunder or fog.

VAZ042-051-052>054-056-030800-
NORTHERN VIRGINIA

CITY           SKY/WX    TMP DP  RH WIND       PRES   REMARKS
WASH NATIONAL  MOCLDY    32  16  51 N8        30.42F
DULLES         MOCLDY    26  15  63 N5        30.40F
FORT BELVOIR   MOCLDY    29  15  56 N3        30.41F
QUANTICO       MOCLDY    32  16  51 NE8       30.43R
FREDERICKSBRG* MOCLDY    30  22  73 CALM      30.41F
STAFFORD*      MOCLDY    30  13  50 CALM      30.45S
WARRENTON      MOCLDY    29  21  72 CALM      30.39F
CULPEPER*      MOCLDY    30  18  59 CALM      30.39F
MANASSAS*      MOCLDY    28  19  69 N3        30.41S
LEESBURG*      PTCLDY    28  19  69 N6        30.41F
WINCHESTER     MOCLDY    27  14  59 CALM      30.38S
FRONT ROYAL*   FAIR      27  16  63 W3        30.37F
LURAY*         FAIR      30  21  69 CALM      30.36S
$$

VAZ048-049-060>072-079>083-030800-
CENTRAL AND SOUTH CENTRAL VIRGINIA

CITY           SKY/WX    TMP DP  RH WIND       PRES   REMARKS
RICHMOND       CLOUDY    32  17  54 NE5       30.41R
CHESTERFIELD*  FAIR      34  10  37 NE5       30.41S
PETERSBURG*    MOCLDY    34  20  57 NE3       30.41R
HANOVER        MOCLDY    30  19  63 CALM      30.42F
TAPPAHANNOCK*  MOCLDY    28  18  66 CALM      30.42S
QUINTON*       FAIR      31  18  57 NE3       30.41F
CHARLOTTSVILLE MOCLDY    31  15  52 NW3       30.38R
GORDONSVILLE*  FAIR      25  19  76 CALM      30.39S
ORANGE*        MOCLDY    28  21  74 CALM      30.41S
LOUISA*        CLOUDY    28  18  64 E3        30.38S
BUMPASS*       FAIR      28  19  68 CALM      30.40S
FARMVILLE*     MOCLDY    33  17  51 CALM      30.38R
CREWE*         CLOUDY    30  22  71 CALM      30.39R
FORT PICKETT*  CLOUDY    32  18  55 S3        30.39R
CHASE CITY*    CLOUDY    38  31  75 CALM      30.38S
CLARKSVILLE*   PTSUNNY   36  28  75 E6        30.38S
SOUTH HILL*    CLOUDY    33  26  77 CALM      30.45S
LAWRENCEVILLE* CLOUDY    32  26  77 CALM      30.40R
EMPORIA*       PTCLDY    30  27  86 CALM      30.43R
$$

VAZ088>098-030800-
SOUTHEAST VIRGINIA

CITY           SKY/WX    TMP DP  RH WIND       PRES   REMARKS
NORFOLK        MOCLDY    34  22  61 N13       30.40F WCI  25
VIRGINIA BEACH MOCLDY    33  23  66 N6        30.40F
NORFOLK NAVAL  CLOUDY    37  22  54 NE14      30.42S
WEST POINT*    MOCLDY    28  20  74 CALM      30.43F
SALUDA*        FAIR      26  21  79 CALM      30.41F
NEWPORT NEWS   MOCLDY    30  24  78 NE3       30.42S
LANGLEY AFB    MOCLDY    33  22  64 NE10      30.41R
FORT EUSTIS    CLOUDY    33  23  68 NE5       30.39S
WILLIAMSBURG*  MOCLDY    30  28  93 CALM      30.42F
HR EXEC AP*    FAIR      34  19  55 NE10      30.41F
FRANKLIN*      MOCLDY    28  25  91 CALM      30.40S
WAKEFIELD      MOCLDY    30  25  81 CALM      30.40F
$$

VAZ020-022-025-037-045-030800-
WEST CENTRAL AND SOUTHWEST VIRGINIA

CITY           SKY/WX    TMP DP  RH WIND       PRES   REMARKS
STAUNTON*      CLOUDY    26  17  71 CALM      30.36S
WAYNESBORO*    FAIR      28  18  64 SE3       30.34R
HOT SPRINGS VA CLOUDY    28  12  50 S7        30.19F
LYNCHBURG      MOCLDY    33  18  53 E5        30.37S
DANVILLE       MOCLDY    38  31  76 E7        30.36S
SOUTH BOSTON*  CLOUDY    38  28  66 E6        30.38S
MARTINSVILLE   CLOUDY    32  20  62 N3        30.36S
ROANOKE        MOCLDY    35  17  47 CALM      30.36S
BLACKSBURG     MOCLDY    29  18  62 CALM      30.32S
DUBLIN*        PTCLDY    31  24  77 CALM      30.30R
MARION*        PTCLDY    32  23  68 E6        30.28F
HILLSVILLE*    PTCLDY    32  18  55 E3        30.26F
RICHLANDS*     FAIR      35  17  47 SE3       30.18F
WISE*          MOCLDY    37  21  52 SE6       30.17F
ABINGDON*      CLOUDY    38  25  59 E9        30.22F
$$

MDZ021>025-VAZ099-100-030800-
SOUTHERN MARYLAND AND THE DELMARVA PENINSULA

CITY           SKY/WX    TMP DP  RH WIND       PRES   REMARKS
PATUXENT RIVER PTCLDY    31  15  52 N5        30.42R
BAY BRIDGE APT   N/A     28  19  69 CALM      30.42F
LEONARDTOWN    PTCLDY    32  14  47 CALM      30.43R
DOVER          CLEAR     28  16  60 W9        30.40F
GEORGETOWN     CLEAR     27  17  66 CALM      30.41S
EASTON         CLEAR     30  18  61 N3        30.44F
CAMBRIDGE      CLEAR     32  18  55 N7        30.40F
SALISBURY      CLEAR     31  17  56 N6        30.41F
OCEAN CITY     CLEAR     29  17  61 N7        30.42R
WALLOPS ISLAND CLEAR     30  17  58 N13       30.41S WCI  20
ACCOMACK*      PTCLDY    32  16  51 N8        30.40S
$$

NCZ012>017-030>032-030800-
NORTH CENTRAL AND EASTERN NORTH CAROLINA

CITY           SKY/WX    TMP DP  RH WIND       PRES   REMARKS
ROANOKE RAPIDS FAIR      32  28  86 CALM      30.40S
RALEIGH        MOCLDY    42  36  79 SE8       30.36R
ELIZABETH CITY MOCLDY    36  22  56 NE12      30.39F
AHOSKIE*       PTCLDY    30  24  78 CALM      30.41S
EDENTON*       MOCLDY    35  23  62 NE3       30.40S
CURRITUCK*     MOCLDY    37  21  53 NE9G16    30.40F
KILL DEVIL HLS MOCLDY    37  28  68 N7        30.36F
MANTEO         MOCLDY    37  27  65 NE12      30.37F
CAPE HATTERAS  CLEAR     39  32  76 N6        30.37S
TARBORO*       FAIR      36  32  87 CALM      30.40S
GOLDSBORO      MOCLDY    39  38  97 E7        30.36S
WASHINGTON     MOCLDY    35  28  78 NE6       30.38F
GREENVILLE     MOCLDY    36  32  87 CALM      30.39S
NEW BERN       MOCLDY    37  29  72 NE3       30.39S
WILMINGTON     MOCLDY    42  31  64 NE12      30.34F
$$

VAZ048-030800-
ELSEWHERE

CITY           SKY/WX    TMP DP  RH WIND       PRES   REMARKS
HARRISBURG PA  PTCLDY    20  11  68 N5        30.40S
BALTIMORE      MOCLDY    23  15  71 CALM      30.41F
ANNAPOLIS      CLEAR     29  16  58 NW5       30.41F
ANDREWS AFB    PTCLDY    27  16  63 N6        30.40S
PHILADELPHIA   PTCLDY    28  10  46 N12       30.43R WCI  18
HENDERSON NC   CLOUDY    38  28  68 E9        30.37F
GREENSBORO     CLOUDY    42  19  39 NE7       30.31F
ROCKY MOUNT    PTCLDY    35  33  92 CALM      30.39R
$$

VAZ100-030800-
MARINE

STATION/POSITION TIME  TEMP    WIND        PRES    WAVE   SWELL
                       AIR SEA DIR/SP/G            HT/PER HT/PER
                 (UTC) (F)     (DEG/KT/KT) (MB)    (FT/S) (FT/S)
BRANDYWINE LGT   0600   31     320/ 10/ 12 1029.9R
CAPE MAY NJ      0600   30     300/  9/ 16 1029.5R
LEWES DE         0700   31     330/ 11/ 12 1029.7F
15NM E FENWICK I 0700   33 35              1029.1S   3/ 4
OCEAN-CITY-INLET 0600   31     350/  8/ 10 1029.6R
WACHAPREAGUE VA  0700   31      10/  6/  9 1029.5F
THOMAS POINT MD  0700   31 32  350/  9/ 10 1030.9F
COVE POINT MD    0700   31      20/ 12/ 16 1029.5S
SOLOMONS ISLAND  0600      33                N/A
BISHOPS HEAD MD  0600   30     360/  6/  9 1029.3R
CAMBRIDGE MD     0600   30     360/  8/ 11 1029.7F
LEWISETTA VA     0700   32        CALM     1029.9R
RAPPAHANNOCK LGT 0700           10/ 14/ 16 1030.3S
STINGRAY PT      0700   33      10/ 10/ 12   N/A
YORK RVR RNG VA  0600   35      40/ 11/ 13 1029.3R
YORKTOWN VA      0600   31     300/  2/  3 1029.8R
DOMINION TERM VA 0700   35      30/  5/  7 1029.6F
KIPTOPEKE VA     0700           30/  4/  5   N/A
CHES BAY BRIDGE  0600   34     360/ 12/ 14 1029.3S
CAPE HENRY VA    0700   33     350/  7/  8 1028.2F
CHESAPEAKE LGHT  0600   35      10/ 14/ 15 1030.2R
WILLOUBY STN VA  0700   34      40/ 10/ 12 1030.1F
S CRANEY ISL VA  0600           20/ 10/ 12 1029.7R
CAPE HENRY BUOY  0700      35                N/A     2/ 4
1ST LANDING BUOY 0700   34      10/  8/ 10 1029.4R
OFFSHORE WE BUOY 0700      36                N/A     4/ 4   2/ 7
64NM E OF VA BCH 0700   42 58   20/ 16/ 19 1028.1R   6/ 7   2/16
DUCK PIER NC     0600   37      20/ 10/ 12 1028.4R
44100 DUCK FRF   0700      37                N/A     4/ 5
44056 DUCK FRF   0700      34                N/A     3/ 6
OREGON INLET NC  0600   38      10/ 11/ 15 1028.6R
HATTERAS NC      0600   41      20/ 10/ 12 1028.6F
CAPE LOOKOUT NC  0600   46      40/ 21/ 25 1028.0F
$$



USA.gov is the U.S. government's official web portal to all federal, state and local government web resources and services.